Regional Weather Roundup
Issued by NWS

Home | Current Version | Previous Version | Text Only | Print | Product List | Glossary Off
Versions: 1 2 3 4 5 6 7 8 9 10 11 12 13 14 15 16 17 18 19 20 21 22 23 24 25 26 27 28 29 30 31 32 33 34 35 36 37 38 39 40 41 42 43 44 45 46 47 48 49 50

000
ASUS45 KTFX 260319
RWRMT
MONTANA HOURLY WEATHER ROUNDUP
NATIONAL WEATHER SERVICE GREAT FALLS MT
819 PM MST THU DEC 25 2014

NOTE: "FAIR" INDICATES FEW OR NO CLOUDS BELOW 12000 FEET WITH NO
SIGNIFICANT WEATHER AND/OR OBSTRUCTIONS TO VISIBILITY.

* THESE STATIONS ARE NOT UNDER NWS QUALITY CONTROL. THEY DO NOT
   REPORT WEATHER SUCH AS PRECIPITATION OR FOG.

MTZ001>007-043-260400-
WEST OF THE DIVIDE
CITY           SKY/WX    TMP DP  RH WIND       PRES   REMARKS
KALISPELL      CLOUDY    27  25  92 CALM      30.02R
MISSOULA       CLOUDY    28  27  96 NE3       30.02S
BUTTE          CLOUDY     9   3  76 E3        29.93S
MULLAN PASS    HAZE      21  16  81 VRB3      29.92R
* ESSEX        N/A       22  20  92 N/A        N/A
* HAMILTON APT PTCLDY    28  23  81 SE5       30.01R WCI  22
* LIBBY APT    CLOUDY    23  21  92 CALM      30.04S
* LINCOLN      N/A       17  14  88 SE1        N/A
* LOOKOUT PASS N/A       23  20  88 NE3        N/A
* POLSON       N/A       26  25  96 N/A        N/A
* RONAN APT    PTCLDY    28  27  96 N/A        N/A
* SEELEY LAKE  N/A       24  22  92 SE1        N/A
* THOMP F APT  PTCLDY    15   6  67 NW15G32    N/A
$$

MTZ008-052>055-260400-
SOUTHWEST MONTANA
CITY           SKY/WX    TMP DP  RH WIND       PRES   REMARKS
BOZEMAN        PTCLDY    10   9  96 S3        29.97R
DILLON         CLEAR      7   3  83 S6        29.92S WCI  -4
* W YELLOWSTON CLEAR      7   2  80 N/A        N/A
* THREE FORKS  PTCLDY     9   9 100 N/A        N/A
* BOULDER HILL N/A       14   9  80 S5         N/A   WCI   6
* MONIDA PASS  N/A       13   7  77 NW21G27    N/A   WCI  -5
* RAYNOLDS PAS N/A       12 -34  10 N14G21     N/A   WCI  -4
* WHITEHALL    N/A       14   9  80 N1G9       N/A
* WISE RIVER   N/A       15   9  77 SE4        N/A
$$

MTZ009>010-012-014-046-048-049-054-260400-
EAST SLOPES AND CENTRAL MONTANA
CITY           SKY/WX    TMP DP  RH WIND       PRES   REMARKS
CUT BANK       FOG        3   0  87 CALM      29.89F VSB 2
GREAT FALLS    CLEAR     18  10  71 S14       29.91F WCI   4
HELENA         MOCLDY    19  12  74 S3        29.96R
MALMSTROM AFB  CLEAR     14  10  84 SW5       29.95S WCI   6
* CONRAD       PTCLDY     3   0  87 CALM       N/A
* DEARBORN     N/A       17  15  92 SE2        N/A
* EAST GLACIER N/A       21  14  74 W12G19     N/A   WCI   9
* MONARCH      N/A       11   6  80 S13        N/A   WCI  -4
* PENDROY      N/A       11   9  92 NW2        N/A
* SWEET GRASS  N/A       15  15 100 S12G17     N/A   WCI   1
* WHITE SULPH  N/A        8   4  84 NE6        N/A   WCI  -2
$$

MTZ011-013-016-021-035-040-045-047-050-051-260400-
NORTH CENTRAL MONTANA
CITY           SKY/WX    TMP DP  RH WIND       PRES   REMARKS
HAVRE          MOCLDY    21  19  92 SW6       29.98S WCI  13
LEWISTOWN      CLEAR     10   9  96 S6        29.93F
* N BAR RANCH  CLEAR     12   9  88 NW6       29.93S WCI   2
* CHINOOK      CLEAR     27  19  72 SW6       30.01R WCI  20
* CHESTER      N/A       15  12  88 SW1        N/A
* DENTON       N/A       10   7  88 S11        N/A   WCI  -4
* GEYSER       N/A        5   2  87 SW10       N/A   WCI -10
* JUDITH GAP   N/A       10   9  96 S8         N/A   WCI  -2
* LOMA         N/A       17  15  92 NE6        N/A   WCI   8
$$

MTZ017>020-022>027-061-062-260400-
NORTHEAST MONTANA
CITY           SKY/WX    TMP DP  RH WIND       PRES   REMARKS
GLASGOW        CLOUDY    21  14  74 NE8       30.03R WCI  11
GLENDIVE       CLOUDY    21  16  81 NW7       30.05R WCI  12
JORDAN         CLEAR     27  18  69 CALM      30.01S
SIDNEY         CLOUDY    19  14  81 NW6       30.08R WCI  11
WOLF POINT     PTCLDY    16  10  77 N7        30.08R WCI   6
* BEAVER HILL  N/A       18  15  88 NW9        N/A   WCI   7
* CIRCLE       N/A       22  18  85 N6         N/A   WCI  14
* NAVAJO       N/A       12   9  88 NW8        N/A
* PLENTYWOOD A CLEAR     12   9  88 NW14      30.05R WCI  -4
* POPLAR APT   CLEAR     18  10  71 N/A       30.08R
* SACO         N/A       22  16  78 E9         N/A   WCI  12
$$

MTZ028>042-056>058-260400-
SOUTHCENTRAL AND SOUTHEAST MONTANA
CITY           SKY/WX    TMP DP  RH WIND       PRES   REMARKS
BAKER          CLOUDY    21  16  81 NW6       30.00R WCI  13
BILLINGS       LGT SNOW  25  19  78 S6        29.99R WCI  18
LIVINGSTON     PTCLDY     9   5  84 W3        29.94R
MILES CITY     CLOUDY    25  19  78 N8        30.03R WCI  16
* BIG TIMBER A PTCLDY    16  14  92 SW6       29.95S WCI   7
* FORSYTH APT  PTCLDY    25  19  78 NW3       30.03R
* LAUREL APT   PTCLDY    23  10  57 N/A        N/A
* ROUNDUP APT  CLEAR     21  16  81 N/A        N/A
* ALZADA       N/A       21  17  84 NW6        N/A   WCI  13
* HYSHAM       N/A       22  16  78 N/A        N/A
* LAME DEER    N/A       18  18 100 N2         N/A
* REED POINT   N/A       21  18  88 N/A        N/A
* ROSCOE HILL  N/A       14  10  84 W1         N/A
$$

REGIONAL REPORTS...DAKOTAS
CITY           SKY/WX    TMP DP  RH WIND       PRES   REMARKS
WILLISTON      CLOUDY    19  12  74 N9        30.05R WCI   8
DICKINSON      CLOUDY    21  16  81 NW12      29.97R WCI   9
BEACH          CLOUDY    18  16  92 NW9       30.02R WCI   7
CROSBY         LGT SNOW  10   9  96 NW9       30.06R WCI  -3
TIOGA          CLOUDY    14  14 100 NW16G21   30.05R WCI  -2
WATFORD CITY   CLOUDY    21  16  81 NW8       30.02R WCI  11
BISMARCK       CLOUDY    27  19  72 NW9       30.00R WCI  18
GRAND FORKS    CLOUDY    25  21  85 N14       29.97R WCI  13
FARGO          CLOUDY    28  21  75 N13       29.95R WCI  17
BUFFALO SD     CLOUDY    21  18  88 N14       29.90R WCI   8
RAPID CITY     LGT SNOW  21  18  88 N20       29.95R WCI   6
$$

REGIONAL REPORTS...WYOMING/IDAHO/WASHINGTON
CITY           SKY/WX    TMP DP  RH WIND       PRES   REMARKS
GILLETTE       CLOUDY    18  16  92 N14       29.93R WCI   4
SHERIDAN       LGT SNOW  21  18  88 W8        29.97R WCI  11
CODY           CLOUDY    19  19 100 N9        29.90R WCI   8
YELLOWSTONE LA PTCLDY    10   3  73 VRB6      29.78R
SALMON         CLOUDY    21  16  81 CALM      29.98R
MULLAN PASS    HAZE      21  16  81 VRB3      29.92S
SAND POINT     CLOUDY    32  32 100 SW6       30.07S WCI  26
SPOKANE        CLOUDY    30  27  89 SE7       30.07S WCI  23
$$

REGIONAL REPORTS...ALBERTA
CITY           SKY/WX    TMP DP  RH WIND       PRES   REMARKS
CALGARY        LGT SNOW  23  21  92 N9        29.89R WCI  13
LETHBRIDGE     FAIR      25  18  75 SW16      29.87R WCI  12
MEDICINE HAT   CLOUDY    23  21  92 E7        29.94F WCI  15
EDMONTON       LGT SNOW  18  16  92 SW5       29.96R WCI  11
WATERTON GATE  N/A       25  16  69 SW22G32    N/A   WCI  10
CARDSTON       N/A       25  16  69 SW12G18    N/A   WCI  14
MILK RIVER     N/A       12  10  92 S7         N/A   WCI   1
$$

REGIONAL REPORTS...SASKATCHEWAN
CITY           SKY/WX    TMP DP  RH WIND       PRES   REMARKS
SWIFT CURRENT  LGT SNOW   7   3  83 CALM      29.99R VSB 3/4
REGINA         FAIR      -2  -6  83 W6        30.07R WCI -14
VAL MARIE      N/A       19  16  88 SE6        N/A   WCI  11
ASSINIBOIA     N/A        0  -4  83 W9         N/A   WCI -15
CORONACH       N/A       12   9  88 NW9        N/A

$$



USA.gov is the U.S. government's official web portal to all federal, state and local government web resources and services.